STARLINK-1167 (45071 NORAD) Tracking and Keplerian Element Data

This shows tracking and keplerian element data for the satellite.

Feedback or suggestion? Click here.




ElementValue
Catalog45071
NameSTARLINK-1167
Epoch Orbit325
Epoch Day47.83334491
Epoch Year2020
RAAN143.6248
Inclination52.9993
Eccentricity0.0004216
Argument of Perigee266.8337
Mean Anonmoly87.6208
Mean Motion15.86347482
Decay Rate-0.00054412
L11 45071U 20006AD 20047.83334491 -.00054412 00000-0 -21069-3 0 9992
L22 45071 52.9993 143.6248 0004216 266.8337 87.6208 15.86347482 3251

Live tracking and technical data element details for STARLINK-1167 (NORAD 45071). STARLINK-1167 can be tracked NOW for your location showing map with azimuth and elevation plus other details from your city location.

Track the satellite on the map from your city or location and see movement details for azimuth, elevation, latitude, longitude, range, height, and movement on the map or in text.







IsCatalogInMostPopularTable: catalog: 45071, numindb: -1

Insert: records affected: 1


GetName: 45071 STARLINK-1167

Hit Count: inserted at: Tue, 18 Feb 2020 02:00:29 GMT